TimeEDT,TemperatureF,Dew PointF,Humidity,Sea Level PressureIn,VisibilityMPH,Wind Direction,Wind SpeedMPH,Gust SpeedMPH,PrecipitationIn,Events,Conditions,WindDirDegrees,DateUTC
12:54 AM,45.0,39.9,82,30.33,10.0,Calm,Calm,-,N/A,,Clear,0,2012-10-14 04:54:00
1:54 AM,46.9,43.0,86,30.30,10.0,SSW,3.5,-,N/A,,Clear,210,2012-10-14 05:54:00
2:54 AM,48.9,44.1,83,30.29,10.0,SSW,3.5,-,N/A,,Clear,210,2012-10-14 06:54:00
3:54 AM,46.9,43.0,86,30.27,10.0,Calm,Calm,-,N/A,,Clear,0,2012-10-14 07:54:00
4:54 AM,51.1,46.9,86,30.25,10.0,SSW,4.6,-,N/A,,Clear,200,2012-10-14 08:54:00
5:54 AM,52.0,46.9,83,30.27,10.0,WSW,4.6,-,N/A,,Clear,240,2012-10-14 09:54:00
6:54 AM,50.0,46.0,86,30.26,10.0,SSW,4.6,-,N/A,,Clear,200,2012-10-14 10:54:00
7:54 AM,53.1,48.9,86,30.26,10.0,South,6.9,-,N/A,,Clear,190,2012-10-14 11:54:00
8:54 AM,57.9,52.0,81,30.26,10.0,SW,10.4,-,N/A,,Clear,220,2012-10-14 12:54:00
9:54 AM,63.0,52.0,67,30.25,10.0,SSW,15.0,20.7,N/A,,Clear,210,2012-10-14 13:54:00
10:54 AM,66.0,48.9,54,30.24,10.0,SW,16.1,23.0,N/A,,Clear,220,2012-10-14 14:54:00
11:54 AM,69.1,46.9,45,30.22,10.0,SSW,17.3,23.0,N/A,,Clear,210,2012-10-14 15:54:00
12:54 PM,70.0,46.9,44,30.18,10.0,SW,16.1,24.2,N/A,,Clear,220,2012-10-14 16:54:00
1:54 PM,71.1,46.9,42,30.15,10.0,SW,16.1,25.3,N/A,,Clear,220,2012-10-14 17:54:00
2:54 PM,72.0,48.0,43,30.12,10.0,SSW,15.0,24.2,N/A,,Clear,200,2012-10-14 18:54:00
3:54 PM,70.0,55.0,59,30.11,10.0,South,11.5,-,N/A,,Clear,190,2012-10-14 19:54:00
4:54 PM,68.0,55.9,65,30.09,10.0,South,10.4,-,N/A,,Clear,170,2012-10-14 20:54:00
5:54 PM,66.0,55.9,70,30.08,10.0,South,10.4,19.6,N/A,,Clear,190,2012-10-14 21:54:00
6:54 PM,64.9,57.0,75,30.06,10.0,South,12.7,-,N/A,,Clear,190,2012-10-14 22:54:00
7:54 PM,64.9,57.0,75,30.07,10.0,South,9.2,-,N/A,,Clear,190,2012-10-14 23:54:00
8:54 PM,64.9,55.9,73,30.05,10.0,South,11.5,-,N/A,,Clear,180,2012-10-15 00:54:00
9:54 PM,64.0,57.9,80,30.04,10.0,North,-9999.0,-,N/A,,Clear,0,2012-10-15 01:54:00
10:54 PM,64.0,59.0,84,30.03,10.0,North,-9999.0,-,N/A,,Clear,0,2012-10-15 02:54:00
11:54 PM,64.9,59.0,81,29.99,10.0,SSW,12.7,17.3,N/A,,Clear,210,2012-10-15 03:54:00